Glenwood, MN

4:21 AM CST on December 13, 2017 (GMT -0600)
Glenwood Municipal

Weather History for KGHW - March, 2012

Change the Weather History Date:

Friday, March 23, 2012

  Actual Average Record
Temperature  
Mean Temperature 60 °F -  
Max Temperature 68 °F 41 °F 68 °F (2012)
Min Temperature 53 °F 22 °F -12 °F (1965)
Degree Days  
Heating Degree Days 4    
Growing Degree Days 10 (Base 50)    
Moisture  
Dew Point 52 °F    
Average Humidity 80    
Maximum Humidity 94    
Minimum Humidity 52    
Precipitation  
Precipitation 0.01 in - - ()
Sea Level Pressure  
Sea Level Pressure 29.94 in    
Wind  
Wind Speed 4 mph (East)    
Max Wind Speed 8 mph    
Max Gust Speed -    
Visibility 6 miles    
Events Fog    
Averages and records for this station are not official NWS values.
T = Trace of Precipitation, MM = Missing Value Source: NWS Daily Summary

Daily Weather History Graph

Daily Weather History Graph

Search for Another Location

Airport or City:

Trip Planner

Search our weather history database for the weather conditions in past years. The results will help you decide how hot, cold, wet, or windy it might be!

Date:

Astronomy

Mar. 23, 2012 Rise Set
Actual Time 7:17 AM CDT 7:38 PM CDT
Civil Twilight 6:47 AM CDT 8:08 PM CDT
Nautical Twilight 6:12 AM CDT 8:43 PM CDT
Astronomical Twilight 5:36 AM CDT 9:19 PM CDT
Moon 7:20 AM CDT (3/23) 9:09 PM CDT (3/23)
Length of Visible Light 13h 20m
Length of Day
12h 20m
New Moon, 1% of the Moon is Illuminated
Mar 23
New Moon
Mar 30
First Quarter
Apr 6
Full
Apr 13
Last Quarter
Apr 21
New

Hourly Weather History & Observations

Time (CDT) Temp. Dew Point Humidity Pressure Visibility Wind Dir Wind Speed Gust Speed Precip Events Conditions
12:14 AM 55.4 °F 53.6 °F 94% 29.96 in 0.8 mi ESE 4.6 mph - N/A   Overcast
12:33 AM 55.4 °F 53.6 °F 94% 29.97 in 0.2 mi SE 5.8 mph - N/A Fog Fog
12:54 AM 55.4 °F 53.6 °F 94% 29.97 in 0.2 mi SE 5.8 mph - N/A Fog Fog
1:34 AM 55.4 °F 53.6 °F 94% 29.96 in 0.2 mi ESE 4.6 mph - N/A   Light Drizzle
1:53 AM 55.4 °F 53.6 °F 94% 29.96 in 0.2 mi SE 3.5 mph - N/A   Light Drizzle
2:14 AM 55.4 °F 53.6 °F 94% 29.96 in 0.2 mi SSE 5.8 mph - N/A   Drizzle
2:54 AM 55.4 °F 53.6 °F 94% 29.96 in 0.2 mi Calm Calm - N/A   Light Drizzle
3:14 AM 55.4 °F 51.8 °F 88% 29.96 in 0.2 mi East 3.5 mph - 0.01 in Fog Fog
3:33 AM 55.4 °F 51.8 °F 88% 29.95 in 0.2 mi East 3.5 mph - 0.01 in Fog Fog
3:53 AM 55.4 °F 51.8 °F 88% 29.95 in 0.2 mi ENE 3.5 mph - 0.01 in Fog Fog
4:14 AM 53.6 °F 51.8 °F 94% 29.95 in 0.2 mi ENE 5.8 mph - N/A Fog Fog
4:33 AM 53.6 °F 51.8 °F 94% 29.95 in 0.2 mi East 5.8 mph - N/A Fog Fog
4:54 AM 53.6 °F 51.8 °F 94% 29.95 in 0.5 mi East 4.6 mph - N/A Fog Fog
5:13 AM 53.6 °F 51.8 °F 94% 29.95 in 0.2 mi Calm Calm - N/A Fog Fog
5:34 AM 53.6 °F 51.8 °F 94% 29.96 in 0.2 mi Calm Calm - N/A Fog Fog
5:53 AM 53.6 °F 51.8 °F 94% 29.96 in 0.2 mi Calm Calm - N/A Fog Fog
6:13 AM 53.6 °F 51.8 °F 94% 29.96 in 0.2 mi ESE 3.5 mph - N/A Fog Fog
6:33 AM 53.6 °F 51.8 °F 94% 29.96 in 0.2 mi ESE 3.5 mph - N/A Fog Fog
6:54 AM 53.6 °F 51.8 °F 94% 29.96 in 0.2 mi ESE 4.6 mph - N/A Fog Fog
7:14 AM 53.6 °F 51.8 °F 94% 29.96 in 0.2 mi ESE 3.5 mph - N/A Fog Fog
7:33 AM 53.6 °F 51.8 °F 94% 29.97 in 0.2 mi Calm Calm - N/A Fog Fog
7:54 AM 53.6 °F 51.8 °F 94% 29.97 in 0.2 mi SSW 4.6 mph - N/A Fog Fog
8:14 AM 53.6 °F 51.8 °F 94% 29.98 in 0.2 mi Calm Calm - N/A Fog Fog
8:33 AM 53.6 °F 51.8 °F 94% 29.98 in 0.2 mi Calm Calm - N/A Fog Fog
9:13 AM 53.6 °F 51.8 °F 94% 29.97 in 0.2 mi Calm Calm - N/A Fog Fog
9:33 AM 55.4 °F 51.8 °F 88% 29.97 in 0.2 mi Calm Calm - N/A Fog Fog
9:54 AM 55.4 °F 53.6 °F 94% 29.97 in 2.0 mi Calm Calm - N/A   Overcast
10:14 AM 57.2 °F 55.4 °F 94% 29.96 in 7.0 mi Calm Calm - N/A   Scattered Clouds
10:33 AM 57.2 °F 55.4 °F 94% 29.96 in 10.0 mi Calm Calm - N/A   Scattered Clouds
10:54 AM 60.8 °F 57.2 °F 88% 29.96 in 10.0 mi ESE 3.5 mph - N/A   Mostly Cloudy
11:13 AM 62.6 °F 53.6 °F 72% 29.96 in 10.0 mi South 4.6 mph - N/A   Mostly Cloudy
11:34 AM 64.4 °F 53.6 °F 68% 29.95 in 10.0 mi Calm Calm - N/A   Scattered Clouds
11:53 AM 64.4 °F 53.6 °F 68% 29.95 in 10.0 mi SE 4.6 mph - N/A   Scattered Clouds
12:13 PM 66.2 °F 51.8 °F 60% 29.95 in 10.0 mi West 3.5 mph - N/A   Mostly Cloudy
12:33 PM 62.6 °F 51.8 °F 68% 29.95 in 10.0 mi West 4.6 mph - N/A   Overcast
12:54 PM 62.6 °F 51.8 °F 68% 29.95 in 10.0 mi West 8.1 mph - N/A   Overcast
1:13 PM 64.4 °F 50.0 °F 59% 29.95 in 10.0 mi WSW 6.9 mph - N/A   Mostly Cloudy
1:33 PM 64.4 °F 51.8 °F 64% 29.95 in 10.0 mi West 4.6 mph - N/A   Mostly Cloudy
1:54 PM 66.2 °F 51.8 °F 60% 29.94 in 10.0 mi SW 4.6 mph - N/A   Overcast
2:14 PM 64.4 °F 51.8 °F 64% 29.94 in 10.0 mi SSW 3.5 mph - N/A   Overcast
2:33 PM 64.4 °F 51.8 °F 64% 29.94 in 10.0 mi West 3.5 mph - N/A   Overcast
2:54 PM 66.2 °F 51.8 °F 60% 29.93 in 10.0 mi Calm Calm - N/A   Overcast
3:13 PM 66.2 °F 51.8 °F 60% 29.93 in 10.0 mi NW 4.6 mph - N/A   Mostly Cloudy
3:34 PM 64.4 °F 51.8 °F 64% 29.92 in 10.0 mi NW 4.6 mph - N/A   Scattered Clouds
3:53 PM 64.4 °F 50.0 °F 59% 29.92 in 10.0 mi NNW 3.5 mph - N/A   Clear
4:13 PM 64.4 °F 51.8 °F 64% 29.92 in 10.0 mi NNW 3.5 mph - N/A   Clear
4:33 PM 66.2 °F 51.8 °F 60% 29.91 in 10.0 mi West 4.6 mph - N/A   Clear
4:54 PM 68.0 °F 50.0 °F 52% 29.91 in 10.0 mi Calm Calm - N/A   Mostly Cloudy
5:14 PM 66.2 °F 50.0 °F 56% 29.90 in 10.0 mi NNE 4.6 mph - N/A   Overcast
5:33 PM 64.4 °F 51.8 °F 64% 29.90 in 10.0 mi North 4.6 mph - N/A   Overcast
5:54 PM 64.4 °F 50.0 °F 59% 29.90 in 10.0 mi Calm Calm - N/A   Mostly Cloudy
6:14 PM 66.2 °F 50.0 °F 56% 29.90 in 10.0 mi Calm Calm - N/A   Scattered Clouds
6:34 PM 64.4 °F 51.8 °F 64% 29.91 in 10.0 mi Calm Calm - N/A   Scattered Clouds
6:53 PM 64.4 °F 53.6 °F 68% 29.91 in 10.0 mi NE 5.8 mph - N/A   Mostly Cloudy
7:14 PM 62.6 °F 53.6 °F 72% 29.91 in 10.0 mi ENE 4.6 mph - N/A   Scattered Clouds
7:34 PM 60.8 °F 53.6 °F 77% 29.91 in 10.0 mi ENE 5.8 mph - N/A   Clear
7:54 PM 59.0 °F 53.6 °F 82% 29.91 in 10.0 mi East 4.6 mph - N/A   Clear
8:14 PM 57.2 °F 53.6 °F 88% 29.92 in 10.0 mi ENE 4.6 mph - N/A   Clear
8:33 PM 57.2 °F 53.6 °F 88% 29.92 in 10.0 mi ENE 3.5 mph - N/A   Clear
8:54 PM 55.4 °F 51.8 °F 88% 29.92 in 10.0 mi East 3.5 mph - N/A   Clear
9:14 PM 55.4 °F 51.8 °F 88% 29.92 in 7.0 mi East 3.5 mph - N/A   Scattered Clouds
9:34 PM 55.4 °F 51.8 °F 88% 29.93 in 7.0 mi Calm Calm - N/A   Scattered Clouds
9:53 PM 55.4 °F 51.8 °F 88% 29.92 in 7.0 mi Calm Calm - N/A   Clear
10:13 PM 55.4 °F 51.8 °F 88% 29.92 in 5.0 mi NNE 3.5 mph - N/A   Scattered Clouds
10:34 PM 53.6 °F 51.8 °F 94% 29.92 in 5.0 mi Calm Calm - N/A   Scattered Clouds
10:54 PM 53.6 °F 51.8 °F 94% 29.93 in 3.0 mi Calm Calm - N/A   Clear
11:14 PM 53.6 °F 51.8 °F 94% 29.93 in 3.0 mi NNE 3.5 mph - N/A   Clear
11:33 PM 53.6 °F 50.0 °F 88% 29.93 in 0.8 mi NNE 3.5 mph - N/A   Mist
11:54 PM 53.6 °F 51.8 °F 94% 29.94 in 0.2 mi Calm Calm - N/A Fog Fog